,,PA_Meas_PMT16A,,PR_Meas_QMR101_102,,RH_Meas_QMH101,,SR_Meas_QMS101,,TA_Meas_QMH101,,GenWind,,GenWind,
time,status,PA,status,PR,status,RH,status,SR,status,TA,status,DirAvg,status,SpdAvg,
2011-10-03, 00:00:04,VALID,918.33,VALID,0,VALID,96.6115,VALID,0,VALID,19.5663,VALID,349,VALID,0.567578,
2011-10-03, 00:01:04,VALID,918.318,VALID,0,VALID,96.6802,VALID,0,VALID,19.5648,VALID,349,VALID,0.529688,
2011-10-03, 00:02:04,VALID,918.3,VALID,0,VALID,96.6725,VALID,0,VALID,19.5243,VALID,349,VALID,0.146484,
2011-10-03, 00:03:04,VALID,918.277,VALID,0,VALID,96.6649,VALID,0,VALID,19.6263,VALID,349,VALID,0.160156,
2011-10-03, 00:04:04,VALID,918.268,VALID,0,VALID,96.642,VALID,0,VALID,19.6068,VALID,349,VALID,0.0730469,
2011-10-03, 00:05:04,VALID,918.291,VALID,0,VALID,96.6954,VALID,0,VALID,19.5858,VALID,349,VALID,0,
2011-10-03, 00:06:04,VALID,918.279,VALID,0,VALID,96.6954,VALID,0,VALID,19.5438,VALID,349,VALID,0.489844,
2011-10-03, 00:07:04,VALID,918.239,VALID,0,VALID,96.6649,VALID,0,VALID,19.5678,VALID,349,VALID,0.644141,
2011-10-03, 00:08:04,VALID,918.229,VALID,0,VALID,96.642,VALID,0,VALID,19.5063,VALID,349,VALID,0.237891,
2011-10-03, 00:09:04,VALID,918.242,VALID,0,VALID,96.6725,VALID,0,VALID,19.4644,VALID,349,VALID,0.208203,
2011-10-03, 00:10:04,VALID,918.21,VALID,0,VALID,96.7411,VALID,0,VALID,19.5048,VALID,349,VALID,0,
2011-10-03, 00:11:04,VALID,918.21,VALID,0,VALID,96.7716,VALID,0,VALID,19.5048,VALID,349,VALID,0,
2011-10-03, 00:12:04,VALID,918.203,VALID,0,VALID,96.7411,VALID,0,VALID,19.5078,VALID,349,VALID,0,
2011-10-03, 00:13:04,VALID,918.16,VALID,0,VALID,96.7107,VALID,0,VALID,19.4044,VALID,349,VALID,0.0808594,
2011-10-03, 00:14:04,VALID,918.15,VALID,0,VALID,96.7259,VALID,0,VALID,19.4059,VALID,349,VALID,0.427734,
2011-10-03, 00:15:04,VALID,918.134,VALID,0,VALID,96.6954,VALID,0,VALID,19.3684,VALID,349,VALID,0.270312,
2011-10-03, 00:16:04,VALID,918.168,VALID,0,VALID,96.7716,VALID,0,VALID,19.4298,VALID,349,VALID,0,
2011-10-03, 00:17:04,VALID,918.181,VALID,0,VALID,96.825,VALID,0,VALID,19.4508,VALID,349,VALID,0,
2011-10-03, 00:18:04,VALID,918.143,VALID,0,VALID,96.8631,VALID,0,VALID,19.4883,VALID,349,VALID,0,
2011-10-03, 00:19:04,VALID,918.154,VALID,0,VALID,96.8784,VALID,0,VALID,19.4898,VALID,349,VALID,0,
2011-10-03, 00:20:04,VALID,918.126,VALID,0,VALID,96.8936,VALID,0,VALID,19.4059,VALID,349,VALID,0,
2011-10-03, 00:21:04,VALID,918.13,VALID,0,VALID,96.8631,VALID,0,VALID,19.4493,VALID,349,VALID,0,
2011-10-03, 00:22:04,VALID,918.135,VALID,0,VALID,96.9089,VALID,0,VALID,19.4478,VALID,349,VALID,0,
2011-10-03, 00:23:04,VALID,918.131,VALID,0,VALID,96.9317,VALID,0,VALID,19.5498,VALID,349,VALID,0.0277344,
2011-10-03, 00:24:04,VALID,918.111,VALID,0,VALID,96.9622,VALID,0,VALID,19.4658,VALID,349,VALID,0.365234,
2011-10-03, 00:25:04,VALID,918.088,VALID,0,VALID,96.9622,VALID,0,VALID,19.4868,VALID,349,VALID,0.327734,
2011-10-03, 00:26:04,VALID,918.057,VALID,0,VALID,97.0003,VALID,0,VALID,19.4673,VALID,349,VALID,0,
2011-10-03, 00:27:04,VALID,918.015,VALID,0,VALID,97.0003,VALID,0,VALID,19.6112,VALID,349,VALID,0,
2011-10-03, 00:28:04,VALID,918.012,VALID,0,VALID,97.0003,VALID,0,VALID,19.5453,VALID,349,VALID,0,
2011-10-03, 00:29:05,VALID,918,VALID,0,VALID,96.9927,VALID,0,VALID,19.6098,VALID,349,VALID,0.391797,
2011-10-03, 00:30:05,VALID,917.951,VALID,0,VALID,96.9927,VALID,0,VALID,19.5078,VALID,349,VALID,0.14375,
2011-10-03, 00:31:05,VALID,917.964,VALID,0,VALID,96.9927,VALID,0,VALID,19.4673,VALID,349,VALID,0.362891,
2011-10-03, 00:32:05,VALID,917.94,VALID,0,VALID,96.9927,VALID,0,VALID,19.5078,VALID,349,VALID,0.239063,
2011-10-03, 00:33:05,VALID,917.93,VALID,0,VALID,97.008,VALID,0,VALID,19.5063,VALID,349,VALID,0.176953,
2011-10-03, 00:34:05,VALID,917.892,VALID,0,VALID,97.0461,VALID,0,VALID,19.4853,VALID,349,VALID,0.00117188,
2011-10-03, 00:35:05,VALID,917.902,VALID,0,VALID,97.0613,VALID,0,VALID,19.5888,VALID,349,VALID,0.360156,
2011-10-03, 00:36:05,VALID,917.885,VALID,0,VALID,97.0385,VALID,0,VALID,19.5678,VALID,349,VALID,0,
2011-10-03, 00:37:05,VALID,917.827,VALID,0,VALID,97.069,VALID,0,VALID,19.5858,VALID,349,VALID,0.38125,
2011-10-03, 00:38:05,VALID,917.821,VALID,0,VALID,97.0613,VALID,0,VALID,19.5663,VALID,349,VALID,0.494922,
2011-10-03, 00:39:05,VALID,917.819,VALID,0,VALID,97.069,VALID,0,VALID,19.5663,VALID,349,VALID,0.413672,
2011-10-03, 00:40:05,VALID,917.822,VALID,0,VALID,97.0537,VALID,0,VALID,19.5663,VALID,349,VALID,0.703125,
2011-10-03, 00:41:05,VALID,917.834,VALID,0,VALID,97.0766,VALID,0,VALID,19.5453,VALID,349,VALID,0.583203,
2011-10-03, 00:42:05,VALID,917.815,VALID,0,VALID,97.0385,VALID,0,VALID,19.5273,VALID,349,VALID,0.398828,
2011-10-03, 00:43:05,VALID,917.795,VALID,0,VALID,97.0385,VALID,0,VALID,19.4868,VALID,349,VALID,0.769531,
2011-10-03, 00:44:05,VALID,917.795,VALID,0,VALID,97.0156,VALID,0,VALID,19.5288,VALID,349,VALID,0.826953,
2011-10-03, 00:45:05,VALID,917.792,VALID,0,VALID,97.0003,VALID,0,VALID,19.5108,VALID,350,VALID,0.860937,
2011-10-03, 00:46:05,VALID,917.783,VALID,0,VALID,97.0156,VALID,0,VALID,19.4898,VALID,351,VALID,0.952344,
2011-10-03, 00:47:05,VALID,917.795,VALID,0,VALID,96.9698,VALID,0,VALID,19.4927,VALID,6,VALID,0.911328,
2011-10-03, 00:48:05,VALID,917.791,VALID,0,VALID,96.9546,VALID,0,VALID,19.3279,VALID,6,VALID,0.960156,
2011-10-03, 00:49:05,VALID,917.756,VALID,0,VALID,96.9851,VALID,0,VALID,19.3489,VALID,6,VALID,0.901172,
2011-10-03, 00:50:05,VALID,917.75,VALID,0,VALID,97.0156,VALID,0,VALID,19.3698,VALID,6,VALID,0.788672,
2011-10-03, 00:51:05,VALID,917.748,VALID,0,VALID,97.0537,VALID,0,VALID,19.3489,VALID,6,VALID,0.694922,
2011-10-03, 00:52:05,VALID,917.755,VALID,0,VALID,97.0537,VALID,0,VALID,19.3893,VALID,6,VALID,0.870313,
2011-10-03, 00:53:05,VALID,917.765,VALID,0,VALID,97.0613,VALID,0,VALID,19.3669,VALID,6,VALID,0.798437,
2011-10-03, 00:54:05,VALID,917.735,VALID,0,VALID,97.0613,VALID,0,VALID,19.4074,VALID,6,VALID,1.16641,
2011-10-03, 00:55:05,VALID,917.741,VALID,0,VALID,97.069,VALID,0,VALID,19.4298,VALID,6,VALID,0.764844,
2011-10-03, 00:56:05,VALID,917.711,VALID,0,VALID,97.0537,VALID,0,VALID,19.3879,VALID,6,VALID,0.767187,
2011-10-03, 00:57:05,VALID,917.691,VALID,0,VALID,97.0766,VALID,0,VALID,19.4283,VALID,6,VALID,0.918359,
2011-10-03, 00:58:05,VALID,917.666,VALID,0,VALID,97.0842,VALID,0,VALID,19.4927,VALID,6,VALID,0.891797,
2011-10-03, 00:59:05,VALID,917.646,VALID,0,VALID,97.0918,VALID,0,VALID,19.4088,VALID,6,VALID,1.10117,
2011-10-03, 01:00:05,VALID,917.61,VALID,0,VALID,97.0842,VALID,0,VALID,19.3879,VALID,5,VALID,1.02617,
2011-10-03, 01:01:05,VALID,917.652,VALID,0,VALID,97.0918,VALID,0,VALID,19.4088,VALID,5,VALID,0.757031,
2011-10-03, 01:02:05,VALID,917.631,VALID,0,VALID,97.0766,VALID,0.107441,VALID,19.3489,VALID,5,VALID,0.498828,
2011-10-03, 01:03:05,VALID,917.645,VALID,0,VALID,97.0766,VALID,0,VALID,19.3069,VALID,5,VALID,0.346484,
2011-10-03, 01:04:05,VALID,917.628,VALID,0,VALID,97.0842,VALID,0,VALID,19.3908,VALID,5,VALID,0.350391,
2011-10-03, 01:05:05,VALID,917.605,VALID,0,VALID,97.0994,VALID,0,VALID,19.3503,VALID,5,VALID,0.353516,
2011-10-03, 01:06:05,VALID,917.603,VALID,0,VALID,97.0842,VALID,0,VALID,19.3503,VALID,5,VALID,0.314063,
2011-10-03, 01:07:05,VALID,917.587,VALID,0,VALID,97.0918,VALID,0,VALID,19.3908,VALID,5,VALID,0.167578,
2011-10-03, 01:08:05,VALID,917.611,VALID,0,VALID,97.1071,VALID,0,VALID,19.3489,VALID,5,VALID,0.358984,
2011-10-03, 01:09:05,VALID,917.591,VALID,0,VALID,97.0994,VALID,0,VALID,19.4147,VALID,5,VALID,0.401563,
2011-10-03, 01:10:05,VALID,917.577,VALID,0,VALID,97.1147,VALID,0,VALID,19.3308,VALID,5,VALID,0.310156,
2011-10-03, 01:11:05,VALID,917.575,VALID,0,VALID,97.0842,VALID,0,VALID,19.3308,VALID,5,VALID,0.165234,
2011-10-03, 01:12:05,VALID,917.549,VALID,0,VALID,97.0918,VALID,0,VALID,19.3323,VALID,5,VALID,0,
2011-10-03, 01:13:05,VALID,917.539,VALID,0,VALID,97.0842,VALID,0,VALID,19.2709,VALID,5,VALID,0.0363281,
2011-10-03, 01:14:05,VALID,917.509,VALID,0,VALID,97.0766,VALID,0,VALID,19.3533,VALID,5,VALID,0.0671875,
2011-10-03, 01:15:05,VALID,917.504,VALID,0,VALID,97.0766,VALID,0,VALID,19.3099,VALID,5,VALID,0.230859,
2011-10-03, 01:16:05,VALID,917.48,VALID,0,VALID,97.0766,VALID,0,VALID,19.3323,VALID,5,VALID,0,
2011-10-03, 01:17:05,VALID,917.455,VALID,0,VALID,97.069,VALID,0.107441,VALID,19.3323,VALID,5,VALID,0.175,
2011-10-03, 01:18:05,VALID,917.462,VALID,0,VALID,97.0385,VALID,0,VALID,19.3952,VALID,5,VALID,0,
2011-10-03, 01:19:05,VALID,917.438,VALID,0,VALID,96.8784,VALID,0,VALID,19.2738,VALID,5,VALID,0,
2011-10-03, 01:20:05,VALID,917.439,VALID,0,VALID,96.8479,VALID,0,VALID,19.1929,VALID,5,VALID,0,
2011-10-03, 01:21:05,VALID,917.409,VALID,0,VALID,96.8555,VALID,0,VALID,19.2139,VALID,5,VALID,0,
2011-10-03, 01:22:05,VALID,917.38,VALID,0,VALID,96.8555,VALID,0,VALID,19.2572,VALID,5,VALID,0,
2011-10-03, 01:23:05,VALID,917.375,VALID,0,VALID,96.8403,VALID,0,VALID,19.1749,VALID,5,VALID,0,
2011-10-03, 01:24:05,VALID,917.358,VALID,0,VALID,96.825,VALID,0,VALID,19.1958,VALID,5,VALID,0,
2011-10-03, 01:25:05,VALID,917.359,VALID,0,VALID,96.8403,VALID,0,VALID,19.2168,VALID,5,VALID,0,
2011-10-03, 01:26:05,VALID,917.32,VALID,0,VALID,96.8784,VALID,0,VALID,19.2587,VALID,5,VALID,0,
2011-10-03, 01:27:05,VALID,917.35,VALID,0,VALID,96.9089,VALID,0,VALID,19.2139,VALID,5,VALID,0.160938,
2011-10-03, 01:28:05,VALID,917.334,VALID,0,VALID,96.886,VALID,0.107441,VALID,19.2558,VALID,5,VALID,0.150391,
2011-10-03, 01:29:05,VALID,917.336,VALID,0,VALID,96.8326,VALID,0,VALID,19.2168,VALID,5,VALID,0.235938,
2011-10-03, 01:30:05,VALID,917.341,VALID,0,VALID,96.8174,VALID,0,VALID,19.2139,VALID,5,VALID,0.400391,
2011-10-03, 01:31:05,VALID,917.289,VALID,0,VALID,96.8479,VALID,0,VALID,19.1734,VALID,5,VALID,0.193359,
2011-10-03, 01:32:05,VALID,917.317,VALID,0,VALID,96.8403,VALID,0.107441,VALID,19.1539,VALID,5,VALID,0.330469,
2011-10-03, 01:33:05,VALID,917.287,VALID,0,VALID,96.8021,VALID,0,VALID,19.1929,VALID,5,VALID,0,
2011-10-03, 01:34:05,VALID,917.275,VALID,0,VALID,96.8098,VALID,0,VALID,19.2363,VALID,5,VALID,0.24375,
2011-10-03, 01:35:05,VALID,917.265,VALID,0,VALID,96.8174,VALID,0,VALID,19.2153,VALID,5,VALID,0,
2011-10-03, 01:36:05,VALID,917.235,VALID,0,VALID,96.8479,VALID,0.107441,VALID,19.2753,VALID,5,VALID,0,
2011-10-03, 01:37:05,VALID,917.234,VALID,0,VALID,96.8098,VALID,0,VALID,19.2153,VALID,5,VALID,0,
2011-10-03, 01:38:05,VALID,917.201,VALID,0,VALID,96.7869,VALID,0.107441,VALID,19.1929,VALID,5,VALID,0,
2011-10-03, 01:39:05,VALID,917.197,VALID,0,VALID,96.7793,VALID,0,VALID,19.2363,VALID,5,VALID,0,
2011-10-03, 01:40:05,VALID,917.153,VALID,0,VALID,96.764,VALID,0,VALID,19.2572,VALID,5,VALID,0,
2011-10-03, 01:41:05,VALID,917.159,VALID,0,VALID,96.7488,VALID,0,VALID,19.1929,VALID,5,VALID,0,
2011-10-03, 01:42:05,VALID,917.104,VALID,0,VALID,96.6954,VALID,0,VALID,19.2153,VALID,5,VALID,0,
2011-10-03, 01:43:05,VALID,917.075,VALID,0,VALID,96.5887,VALID,0,VALID,19.1778,VALID,5,VALID,0,
2011-10-03, 01:44:05,VALID,917.078,VALID,0,VALID,96.5124,VALID,0,VALID,19.0998,VALID,5,VALID,0.342578,
2011-10-03, 01:45:05,VALID,917.094,VALID,0,VALID,96.4133,VALID,0,VALID,19.0608,VALID,5,VALID,0.354688,
2011-10-03, 01:46:05,VALID,917.077,VALID,0,VALID,96.3371,VALID,0,VALID,18.9828,VALID,5,VALID,0.470313,
2011-10-03, 01:47:05,VALID,917.084,VALID,0,VALID,96.238,VALID,0,VALID,18.8629,VALID,5,VALID,0.398828,
2011-10-03, 01:48:05,VALID,917.096,VALID,0,VALID,96.3142,VALID,0.107441,VALID,18.8225,VALID,5,VALID,0.407031,
2011-10-03, 01:49:05,VALID,917.077,VALID,0,VALID,96.238,VALID,0,VALID,18.7864,VALID,5,VALID,0.414063,
2011-10-03, 01:50:05,VALID,917.052,VALID,0,VALID,96.1541,VALID,0,VALID,18.7084,VALID,5,VALID,0.378516,
2011-10-03, 01:51:05,VALID,917.054,VALID,0,VALID,96.3066,VALID,0,VALID,18.6067,VALID,5,VALID,0.744141,
2011-10-03, 01:52:05,VALID,917.035,VALID,0,VALID,96.5582,VALID,0,VALID,18.7474,VALID,5,VALID,0.534766,
2011-10-03, 01:53:05,VALID,917.022,VALID,0,VALID,96.642,VALID,0,VALID,18.7669,VALID,5,VALID,0.542969,
2011-10-03, 01:54:05,VALID,916.991,VALID,0,VALID,96.6039,VALID,0,VALID,18.7488,VALID,5,VALID,0.632813,
2011-10-03, 01:55:05,VALID,917.008,VALID,0,VALID,96.4896,VALID,0,VALID,18.6485,VALID,5,VALID,0.630469,
2011-10-03, 01:56:05,VALID,916.978,VALID,0,VALID,96.4286,VALID,0,VALID,18.5705,VALID,5,VALID,0.476172,
2011-10-03, 01:57:05,VALID,916.989,VALID,0,VALID,96.5582,VALID,0,VALID,18.533,VALID,5,VALID,0.399609,
2011-10-03, 01:58:05,VALID,916.969,VALID,0,VALID,96.7107,VALID,0,VALID,18.6333,VALID,5,VALID,0.285156,
2011-10-03, 01:59:05,VALID,916.939,VALID,0,VALID,96.7183,VALID,0,VALID,18.572,VALID,5,VALID,0.476172,
2011-10-03, 02:00:05,VALID,916.927,VALID,0,VALID,96.7335,VALID,0,VALID,18.5914,VALID,5,VALID,0.678906,
2011-10-03, 02:01:05,VALID,916.919,VALID,0,VALID,96.7488,VALID,0,VALID,18.4926,VALID,5,VALID,0.859375,
2011-10-03, 02:02:05,VALID,916.928,VALID,0,VALID,96.9089,VALID,0,VALID,18.5705,VALID,5,VALID,0.827734,
2011-10-03, 02:03:05,VALID,916.916,VALID,0,VALID,96.9698,VALID,0,VALID,18.6513,VALID,5,VALID,0.391797,
2011-10-03, 02:04:05,VALID,916.911,VALID,0,VALID,96.947,VALID,0,VALID,18.5691,VALID,5,VALID,0.192578,
2011-10-03, 02:05:05,VALID,916.91,VALID,0,VALID,96.9394,VALID,0,VALID,18.6124,VALID,5,VALID,0.38125,
2011-10-03, 02:06:05,VALID,916.892,VALID,0,VALID,97.008,VALID,0,VALID,18.5705,VALID,5,VALID,0.2375,
2011-10-03, 02:07:05,VALID,916.934,VALID,0,VALID,96.9775,VALID,0,VALID,18.6109,VALID,5,VALID,0.0277344,
2011-10-03, 02:08:05,VALID,916.886,VALID,0,VALID,96.9546,VALID,0,VALID,18.5943,VALID,5,VALID,0,
2011-10-03, 02:09:05,VALID,916.899,VALID,0,VALID,96.9089,VALID,0,VALID,18.5553,VALID,5,VALID,0,
2011-10-03, 02:10:05,VALID,916.857,VALID,0,VALID,96.947,VALID,0,VALID,18.4536,VALID,5,VALID,0,
2011-10-03, 02:11:05,VALID,916.83,VALID,0,VALID,97.069,VALID,0,VALID,18.5121,VALID,5,VALID,0.276953,
2011-10-03, 02:12:05,VALID,916.827,VALID,0,VALID,97.0994,VALID,0,VALID,18.5121,VALID,5,VALID,0.267188,
2011-10-03, 02:13:05,VALID,916.774,VALID,0,VALID,97.1452,VALID,0,VALID,18.5511,VALID,5,VALID,0.0824219,
2011-10-03, 02:14:05,VALID,916.806,VALID,0,VALID,97.1299,VALID,0,VALID,18.572,VALID,5,VALID,0.167969,
2011-10-03, 02:15:05,VALID,916.821,VALID,0,VALID,97.1528,VALID,0,VALID,18.6124,VALID,5,VALID,0,
2011-10-03, 02:16:05,VALID,916.81,VALID,0,VALID,97.1299,VALID,0,VALID,18.5511,VALID,5,VALID,0,
2011-10-03, 02:17:05,VALID,916.8,VALID,0,VALID,97.1452,VALID,0,VALID,18.5511,VALID,5,VALID,0,
2011-10-03, 02:18:05,VALID,916.827,VALID,0,VALID,97.1299,VALID,0,VALID,18.5511,VALID,5,VALID,0,
2011-10-03, 02:19:05,VALID,916.805,VALID,0,VALID,97.1147,VALID,0,VALID,18.5316,VALID,5,VALID,0,
2011-10-03, 02:20:05,VALID,916.815,VALID,0,VALID,97.1299,VALID,0,VALID,18.5748,VALID,5,VALID,0,
2011-10-03, 02:21:05,VALID,916.829,VALID,0,VALID,97.0232,VALID,0,VALID,18.4926,VALID,5,VALID,0,
2011-10-03, 02:22:05,VALID,916.811,VALID,0,VALID,96.8784,VALID,0,VALID,18.3965,VALID,5,VALID,0,
2011-10-03, 02:23:05,VALID,916.794,VALID,0,VALID,96.8631,VALID,0,VALID,18.3394,VALID,5,VALID,0.251563,
2011-10-03, 02:24:05,VALID,916.769,VALID,0,VALID,96.9089,VALID,0,VALID,18.1988,VALID,5,VALID,0.392188,
2011-10-03, 02:25:05,VALID,916.771,VALID,0,VALID,97.1452,VALID,0,VALID,18.3185,VALID,5,VALID,0.441797,
2011-10-03, 02:26:05,VALID,916.766,VALID,0,VALID,97.2214,VALID,0,VALID,18.338,VALID,5,VALID,0.469922,
2011-10-03, 02:27:05,VALID,916.776,VALID,0,VALID,97.1986,VALID,0,VALID,18.3394,VALID,5,VALID,0.666797,
2011-10-03, 02:28:05,VALID,916.786,VALID,0,VALID,97.1986,VALID,0,VALID,18.3185,VALID,5,VALID,0.473437,
2011-10-03, 02:29:05,VALID,916.783,VALID,0,VALID,97.2062,VALID,0,VALID,18.2796,VALID,5,VALID,0.523438,
2011-10-03, 02:30:05,VALID,916.81,VALID,0,VALID,97.2062,VALID,0,VALID,18.3018,VALID,5,VALID,0.7,
2011-10-03, 02:31:05,VALID,916.79,VALID,0,VALID,97.2443,VALID,0,VALID,18.3004,VALID,5,VALID,0.816797,
2011-10-03, 02:32:05,VALID,916.773,VALID,0,VALID,97.2672,VALID,0,VALID,18.338,VALID,5,VALID,0.523438,
2011-10-03, 02:33:05,VALID,916.78,VALID,0,VALID,97.2824,VALID,0,VALID,18.4355,VALID,5,VALID,0.357031,
2011-10-03, 02:34:05,VALID,916.758,VALID,0,VALID,97.3129,VALID,0,VALID,18.4355,VALID,5,VALID,0.325391,
2011-10-03, 02:35:05,VALID,916.744,VALID,0,VALID,97.2824,VALID,0,VALID,18.3589,VALID,5,VALID,0.348437,
2011-10-03, 02:36:05,VALID,916.74,VALID,0,VALID,97.2824,VALID,0,VALID,18.3199,VALID,5,VALID,0.354688,
2011-10-03, 02:37:05,VALID,916.748,VALID,0,VALID,97.29,VALID,0,VALID,18.3199,VALID,5,VALID,0.324219,
2011-10-03, 02:38:05,VALID,916.794,VALID,0,VALID,97.3281,VALID,0,VALID,18.3784,VALID,5,VALID,0.327734,
2011-10-03, 02:39:05,VALID,916.761,VALID,0,VALID,97.3434,VALID,0,VALID,18.4174,VALID,5,VALID,0.547656,
2011-10-03, 02:40:05,VALID,916.779,VALID,0,VALID,97.3663,VALID,0,VALID,18.4759,VALID,5,VALID,0.6,
2011-10-03, 02:41:05,VALID,916.79,VALID,0,VALID,97.3739,VALID,0,VALID,18.5149,VALID,5,VALID,0.426953,
2011-10-03, 02:42:05,VALID,916.746,VALID,0,VALID,97.3968,VALID,0,VALID,18.5149,VALID,5,VALID,0.432031,
2011-10-03, 02:43:05,VALID,916.739,VALID,0,VALID,97.3891,VALID,0,VALID,18.5149,VALID,5,VALID,0.48125,
2011-10-03, 02:44:05,VALID,916.729,VALID,0,VALID,97.3891,VALID,0,VALID,18.4759,VALID,5,VALID,0.436328,
2011-10-03, 02:45:05,VALID,916.737,VALID,0,VALID,97.3815,VALID,0,VALID,18.4564,VALID,5,VALID,0.452734,
2011-10-03, 02:46:05,VALID,916.724,VALID,0,VALID,97.3815,VALID,0,VALID,18.4369,VALID,5,VALID,0.419531,
2011-10-03, 02:47:05,VALID,916.738,VALID,0,VALID,97.3891,VALID,0,VALID,18.4174,VALID,5,VALID,0.621484,
2011-10-03, 02:48:05,VALID,916.75,VALID,0,VALID,97.3891,VALID,0,VALID,18.416,VALID,5,VALID,0.635938,
2011-10-03, 02:49:05,VALID,916.727,VALID,0,VALID,97.3891,VALID,0,VALID,18.4355,VALID,5,VALID,0.553125,
2011-10-03, 02:50:05,VALID,916.716,VALID,0,VALID,97.4196,VALID,0,VALID,18.416,VALID,5,VALID,0.517578,
2011-10-03, 02:51:05,VALID,916.731,VALID,0,VALID,97.4273,VALID,0,VALID,18.455,VALID,5,VALID,0.648047,
2011-10-03, 02:52:05,VALID,916.717,VALID,0,VALID,97.4501,VALID,0,VALID,18.5135,VALID,5,VALID,0.6625,
2011-10-03, 02:53:05,VALID,916.739,VALID,0,VALID,97.4654,VALID,0,VALID,18.533,VALID,5,VALID,0.387891,
2011-10-03, 02:54:05,VALID,916.756,VALID,0,VALID,97.473,VALID,0.107441,VALID,18.533,VALID,5,VALID,0.466797,
2011-10-03, 02:55:05,VALID,916.762,VALID,0,VALID,97.4806,VALID,0.107441,VALID,18.572,VALID,5,VALID,0.432813,
2011-10-03, 02:56:05,VALID,916.716,VALID,0,VALID,97.4654,VALID,0,VALID,18.5525,VALID,5,VALID,0.701563,
2011-10-03, 02:57:05,VALID,916.696,VALID,0,VALID,97.473,VALID,0,VALID,18.572,VALID,5,VALID,0.7,
2011-10-03, 02:58:05,VALID,916.672,VALID,0,VALID,97.4882,VALID,0,VALID,18.5525,VALID,5,VALID,0.828516,
2011-10-03, 02:59:05,VALID,916.639,VALID,0,VALID,97.4882,VALID,0,VALID,18.5121,VALID,5,VALID,0.819922,
2011-10-03, 03:00:05,VALID,916.649,VALID,0,VALID,97.4882,VALID,0,VALID,18.5135,VALID,5,VALID,0.839453,
2011-10-03, 03:01:05,VALID,916.661,VALID,0,VALID,97.4882,VALID,0,VALID,18.5135,VALID,5,VALID,0.612109,
2011-10-03, 03:02:05,VALID,916.647,VALID,0,VALID,97.4959,VALID,0.107441,VALID,18.533,VALID,5,VALID,0.836719,
2011-10-03, 03:03:05,VALID,916.66,VALID,0,VALID,97.4959,VALID,0,VALID,18.5525,VALID,6,VALID,0.480078,
2011-10-03, 03:04:05,VALID,916.646,VALID,0,VALID,97.5035,VALID,0,VALID,18.5929,VALID,6,VALID,0.0605469,
2011-10-03, 03:05:05,VALID,916.625,VALID,0,VALID,97.5264,VALID,0,VALID,18.572,VALID,6,VALID,0.372266,
2011-10-03, 03:06:05,VALID,916.654,VALID,0,VALID,97.534,VALID,0,VALID,18.6109,VALID,6,VALID,0.482422,
2011-10-03, 03:07:05,VALID,916.652,VALID,0,VALID,97.534,VALID,0,VALID,18.6708,VALID,6,VALID,0.339844,
2011-10-03, 03:08:05,VALID,916.66,VALID,0,VALID,97.5416,VALID,0,VALID,18.6694,VALID,6,VALID,0.576563,
2011-10-03, 03:09:05,VALID,916.644,VALID,0,VALID,97.5492,VALID,0,VALID,18.6889,VALID,6,VALID,0.446875,
2011-10-03, 03:10:05,VALID,916.61,VALID,0,VALID,97.5721,VALID,0,VALID,18.7098,VALID,6,VALID,0.374219,
2011-10-03, 03:11:04,VALID,916.598,VALID,0,VALID,97.5721,VALID,0,VALID,18.7293,VALID,6,VALID,0.199609,
2011-10-03, 03:12:04,VALID,916.573,VALID,0,VALID,97.5569,VALID,0,VALID,18.7279,VALID,6,VALID,0.504687,
2011-10-03, 03:13:04,VALID,916.564,VALID,0,VALID,97.5645,VALID,0,VALID,18.7474,VALID,6,VALID,0.237109,
2011-10-03, 03:14:04,VALID,916.525,VALID,0,VALID,97.5645,VALID,0,VALID,18.7488,VALID,6,VALID,0.439844,
2011-10-03, 03:15:04,VALID,916.507,VALID,0,VALID,97.5797,VALID,0,VALID,18.7683,VALID,6,VALID,0.627734,
2011-10-03, 03:16:04,VALID,916.491,VALID,0,VALID,97.5569,VALID,0,VALID,18.7683,VALID,6,VALID,0.485547,
2011-10-03, 03:17:04,VALID,916.507,VALID,0,VALID,97.5797,VALID,0,VALID,18.7488,VALID,6,VALID,0.516406,
2011-10-03, 03:18:04,VALID,916.511,VALID,0,VALID,97.5797,VALID,0,VALID,18.7279,VALID,6,VALID,0.579687,
2011-10-03, 03:19:04,VALID,916.51,VALID,0,VALID,97.5797,VALID,0,VALID,18.7084,VALID,6,VALID,0.295703,
2011-10-03, 03:20:04,VALID,916.517,VALID,0,VALID,97.5721,VALID,0,VALID,18.7293,VALID,6,VALID,0.408594,
2011-10-03, 03:21:04,VALID,916.501,VALID,0,VALID,97.5645,VALID,0,VALID,18.6694,VALID,6,VALID,0.607031,
2011-10-03, 03:22:04,VALID,916.497,VALID,0,VALID,97.5645,VALID,0,VALID,18.6513,VALID,6,VALID,0.676172,
2011-10-03, 03:23:04,VALID,916.5,VALID,0,VALID,97.5721,VALID,0,VALID,18.6124,VALID,6,VALID,0.660937,
2011-10-03, 03:24:04,VALID,916.487,VALID,0,VALID,97.5569,VALID,0,VALID,18.5914,VALID,6,VALID,0.959375,
2011-10-03, 03:25:04,VALID,916.498,VALID,0,VALID,97.5645,VALID,0,VALID,18.5525,VALID,6,VALID,0.88125,
2011-10-03, 03:26:04,VALID,916.486,VALID,0,VALID,97.5797,VALID,0,VALID,18.5344,VALID,6,VALID,0.771875,
2011-10-03, 03:27:04,VALID,916.499,VALID,0,VALID,97.5645,VALID,0,VALID,18.4954,VALID,6,VALID,0.567969,
2011-10-03, 03:28:04,VALID,916.5,VALID,0,VALID,97.5797,VALID,0,VALID,18.4954,VALID,6,VALID,0.595312,
2011-10-03, 03:29:04,VALID,916.526,VALID,0,VALID,97.5873,VALID,0,VALID,18.4355,VALID,6,VALID,0.446875,
2011-10-03, 03:30:04,VALID,916.5,VALID,0,VALID,97.595,VALID,0,VALID,18.4355,VALID,6,VALID,0.510547,
2011-10-03, 03:31:04,VALID,916.531,VALID,0,VALID,97.595,VALID,0,VALID,18.4369,VALID,6,VALID,0.628125,
2011-10-03, 03:32:04,VALID,916.503,VALID,0,VALID,97.595,VALID,0,VALID,18.4174,VALID,6,VALID,0.675781,
2011-10-03, 03:33:04,VALID,916.53,VALID,0,VALID,97.6102,VALID,0,VALID,18.3979,VALID,6,VALID,0.724219,
2011-10-03, 03:34:04,VALID,916.523,VALID,0,VALID,97.6178,VALID,0,VALID,18.3575,VALID,6,VALID,0.724609,
2011-10-03, 03:35:04,VALID,916.486,VALID,0,VALID,97.5797,VALID,0,VALID,18.3394,VALID,6,VALID,0.894531,
2011-10-03, 03:36:04,VALID,916.454,VALID,0,VALID,97.595,VALID,0,VALID,18.3004,VALID,6,VALID,0.807422,
2011-10-03, 03:37:04,VALID,916.444,VALID,0,VALID,97.6255,VALID,0,VALID,18.299,VALID,6,VALID,0.933594,
2011-10-03, 03:38:04,VALID,916.427,VALID,0,VALID,97.6178,VALID,0,VALID,18.299,VALID,6,VALID,0.854297,
2011-10-03, 03:39:04,VALID,916.446,VALID,0,VALID,97.6407,VALID,0,VALID,18.299,VALID,6,VALID,0.782422,
2011-10-03, 03:40:04,VALID,916.448,VALID,0,VALID,97.6483,VALID,0,VALID,18.299,VALID,6,VALID,0.609375,
2011-10-03, 03:41:04,VALID,916.442,VALID,0,VALID,97.6483,VALID,0,VALID,18.299,VALID,6,VALID,0.575781,
2011-10-03, 03:42:04,VALID,916.434,VALID,0,VALID,97.6712,VALID,0,VALID,18.3199,VALID,6,VALID,0.424219,
2011-10-03, 03:43:04,VALID,916.396,VALID,0,VALID,97.6712,VALID,0,VALID,18.3185,VALID,6,VALID,0.366797,
2011-10-03, 03:44:04,VALID,916.403,VALID,0,VALID,97.6712,VALID,0,VALID,18.3394,VALID,6,VALID,0.463672,
2011-10-03, 03:45:04,VALID,916.38,VALID,0,VALID,97.6865,VALID,0,VALID,18.3589,VALID,6,VALID,0.433984,
2011-10-03, 03:46:04,VALID,916.34,VALID,0,VALID,97.6865,VALID,0,VALID,18.3575,VALID,6,VALID,0.567969,
2011-10-03, 03:47:04,VALID,916.33,VALID,0,VALID,97.6941,VALID,0,VALID,18.3784,VALID,6,VALID,0.670313,
2011-10-03, 03:48:04,VALID,916.298,VALID,0,VALID,97.7093,VALID,0,VALID,18.3575,VALID,6,VALID,0.841406,
2011-10-03, 03:49:04,VALID,916.279,VALID,0,VALID,97.6865,VALID,0,VALID,18.338,VALID,6,VALID,0.916406,
2011-10-03, 03:50:04,VALID,916.294,VALID,0,VALID,97.7017,VALID,0,VALID,18.3589,VALID,6,VALID,0.533984,